Weather History for West Palm Beach, FL

Change the Weather History Date:

Friday, April 25, 2014

  Actual Average Record
Temperature  
Mean Temperature 79 °F 75 °F  
Max Temperature 90 °F 83 °F 97 °F (1971)
Min Temperature 68 °F 67 °F 50 °F (2005)
Degree Days  
Heating Degree Days 0 0  
Month to date heating degree days 0 0  
Since 1 July heating degree days 122 229  
Cooling Degree Days 14 10  
Month to date cooling degree days 257 213  
Year to date cooling degree days 805 641  
Growing Degree Days 29 (Base 50)    
Moisture  
Dew Point 66 °F    
Average Humidity 59    
Maximum Humidity 84    
Minimum Humidity 34    
Precipitation  
Precipitation 0.00 in 0.11 in 6.49 in (1979)
Month to date precipitation 1.04 3.16  
Year to date precipitation 14.92 13.70  
Snow  
Snow 0.00 in - - ()
Month to date snowfall 0.0  
Since 1 July snowfall 0.0  
Snow Depth 0.00 in    
Sea Level Pressure  
Sea Level Pressure 29.96 in    
Wind  
Wind Speed 7 mph (SW)    
Max Wind Speed 16 mph    
Max Gust Speed 24 mph    
Visibility 10 miles    
Events      
T = Trace of Precipitation, MM = Missing Value Source: NWS Daily Summary

Daily Weather History Graph

Daily Weather History Graph

Search for Another Location

Airport:

Trip Planner

Search our weather history database for the weather conditions in past years. The results will help you decide how hot, cold, wet, or windy it might be!

Date:

Astronomy

Apr. 25, 2014 Rise Set
Actual Time 6:47 AM EDT 7:49 PM EDT
Civil Twilight 6:23 AM EDT 8:13 PM EDT
Nautical Twilight 5:54 AM EDT 8:42 PM EDT
Astronomical Twilight 5:25 AM EDT 9:11 PM EDT
Moon 4:11 AM EDT (4/25) 4:30 PM EDT (4/25)
Length of Visible Light 13h 50m
Length of Day
13h 02m
Waning Crescent, 15% of the Moon is Illuminated
Apr 25
Waning Crescent
Apr 29
New
May 6
First Quarter
May 14
Full
May 21
Last Quarter

Hourly Weather History & Observations

Time (EDT) Temp. Heat Index Dew Point Humidity Pressure Visibility Wind Dir Wind Speed Gust Speed Precip Events Conditions
12:53 AM 75.9 °F - 68.0 °F 76% 29.97 in 10.0 mi South 4.6 mph - N/A   Partly Cloudy
1:53 AM 73.0 °F - 68.0 °F 84% 29.96 in 10.0 mi WSW 9.2 mph - N/A   Partly Cloudy
2:53 AM 71.1 °F - 64.9 °F 81% 29.94 in 10.0 mi West 3.5 mph - N/A   Partly Cloudy
3:53 AM 69.1 °F - 64.0 °F 84% 29.94 in 10.0 mi West 3.5 mph - N/A   Scattered Clouds
4:53 AM 69.1 °F - 64.9 °F 87% 29.94 in 10.0 mi Calm Calm - N/A   Mostly Cloudy
5:53 AM 69.1 °F - 64.9 °F 87% 29.96 in 10.0 mi Calm Calm - N/A   Mostly Cloudy
6:53 AM 69.1 °F - 64.9 °F 87% 29.99 in 10.0 mi SSW 3.5 mph - N/A   Scattered Clouds
7:53 AM 71.1 °F - 66.9 °F 87% 30.01 in 10.0 mi Calm Calm - N/A   Scattered Clouds
8:53 AM 73.9 °F - 66.0 °F 76% 30.02 in 10.0 mi Variable 3.5 mph - N/A   Scattered Clouds
9:53 AM 78.1 °F - 64.9 °F 64% 30.01 in 10.0 mi Variable 3.5 mph - N/A   Partly Cloudy
10:53 AM 81.0 °F 82.2 °F 63.0 °F 54% 30.01 in 10.0 mi SW 10.4 mph - N/A   Scattered Clouds
11:53 AM 82.9 °F 84.4 °F 64.0 °F 53% 30.01 in 10.0 mi West 9.2 mph - N/A   Scattered Clouds
12:53 PM 84.9 °F 85.9 °F 63.0 °F 48% 29.99 in 10.0 mi WSW 6.9 mph 19.6 mph N/A   Mostly Cloudy
1:53 PM 87.1 °F 87.5 °F 62.1 °F 43% 29.96 in 10.0 mi WSW 9.2 mph - N/A   Scattered Clouds
2:53 PM 88.0 °F 87.9 °F 61.0 °F 40% 29.95 in 10.0 mi WSW 12.7 mph 18.4 mph N/A   Mostly Cloudy
3:53 PM 88.0 °F 87.6 °F 60.1 °F 39% 29.93 in 10.0 mi WSW 10.4 mph 18.4 mph N/A   Scattered Clouds
4:53 PM 89.1 °F 88.0 °F 57.9 °F 35% 29.91 in 10.0 mi WSW 13.8 mph 17.3 mph N/A   Scattered Clouds
5:53 PM 88.0 °F 88.4 °F 62.1 °F 42% 29.91 in 10.0 mi NW 10.4 mph - N/A   Scattered Clouds
6:53 PM 82.9 °F 85.8 °F 68.0 °F 60% 29.92 in 10.0 mi SE 10.4 mph - N/A   Scattered Clouds
7:53 PM 81.0 °F 83.8 °F 68.0 °F 65% 29.94 in 10.0 mi SSE 11.5 mph - N/A   Scattered Clouds
8:53 PM 80.1 °F 83.2 °F 70.0 °F 71% 29.96 in 10.0 mi SSE 8.1 mph - N/A   Scattered Clouds
9:53 PM 79.0 °F - 71.1 °F 77% 29.97 in 10.0 mi SSE 6.9 mph - N/A   Partly Cloudy
10:53 PM 79.0 °F - 71.1 °F 77% 29.97 in 10.0 mi South 6.9 mph - N/A   Partly Cloudy
11:53 PM 78.1 °F - 71.1 °F 79% 29.97 in 10.0 mi South 4.6 mph - N/A   Scattered Clouds